Location: Zagreb
(45.8000°N, 16.0000°E)
Time: 11:25:47
(UTC+02:00)

ISS - Visible Passes

Search period start: 19 April 2014 00:00
Search period end: 29 April 2014 00:00
Orbit: 414 x 419 km, 51.6° (Epoch: 19 April)

Date Brightness Start Highest point End Pass type
(mag) Time Alt. Az. Time Alt. Az. Time Alt. Az.
19 Apr -2.5 20:28:41 10° NW 20:31:56 44° NNE 20:35:10 10° E visible
19 Apr -2.1 22:05:30 10° WNW 22:08:05 36° WSW 22:08:05 36° WSW visible
20 Apr -3.1 21:17:00 10° WNW 21:20:20 65° SSW 21:21:36 34° SE visible
21 Apr -3.2 20:28:32 10° WNW 20:31:54 83° NNE 20:35:07 11° ESE visible
21 Apr -1.0 22:06:02 10° W 22:08:01 17° SW 22:08:01 17° SW visible
22 Apr -1.7 21:17:04 10° W 21:19:57 27° SW 21:21:33 18° S visible
23 Apr -2.4 20:28:19 10° WNW 20:31:32 43° SW 20:34:43 10° SE visible
24 Apr -0.5 21:18:13 10° WSW 21:19:11 11° SW 21:20:09 10° SSW visible
25 Apr -0.9 20:28:24 10° W 20:30:46 18° SW 20:33:07 10° S visible
